{"data":{"norad_id":52617,"intl_designator":"2022-052V","name":"STARLINK-3996","alt_names":[],"object_type":"PAYLOAD","status":"ACTIVE","operator":null,"country":"US","launch_date":"2022-05-14","launch_site_code":"AFETR","launch_vehicle":null,"mission":null,"orbit_class":"UNKNOWN","rcs_meters":null,"size_class":null,"mass_kg":null,"dimensions":null,"purposes":["comms"],"wikipedia_slug":null,"has_3d_model":false,"image_url":null,"decayed_at":null,"tle_current":{"epoch":"2026-05-25T02:52:34.841280Z","epoch_age_seconds":75392,"freshness":"FRESH","line1":"1 52617U 22052V   26145.11984770  .00000179  00000+0  29336-4 0  9990","line2":"2 52617  53.2140 286.0134 0001213  88.5632 271.5499 15.08839623222526","mean_motion":15.08839623,"eccentricity":0.0001213,"inclination_deg":53.214,"raan_deg":286.0134,"arg_perigee_deg":88.5632,"mean_anomaly_deg":271.5499,"bstar":2.9336e-5,"rev_number":22252,"period_min":95.437578523877,"perigee_km":538.90540227156,"apogee_km":540.58368033348,"semimajor_km":6917.8815413025,"source":"CELESTRAK","updated_at":"2026-05-25T13:38:17.200582Z"}}}